Location: Clatteringshaws Loch
(55.0508°N, 4.2860°W)
Time: 00:33:03
(UTC+01:00)

SR - Visible Passes

Search period start: 26 October 2014 00:00
Search period end: 04 November 2014 23:00
Orbit: 576 x 888 km, 66.7° (Epoch: 24 October)

Date Brightness Start Highest point End Pass type
(mag) Time Alt. Az. Time Alt. Az. Time Alt. Az.
26 Oct ? 17:48:48 10° WNW 17:53:39 26° N 17:58:18 10° NE visible
26 Oct ? 19:32:16 10° NW 19:37:26 33° NNE 19:38:05 32° NE visible
26 Oct ? 21:14:45 10° NW 21:17:34 30° NW 21:17:34 30° NW visible
27 Oct ? 18:43:39 10° NW 18:48:36 28° NNE 18:50:57 21° NE visible
27 Oct ? 20:26:20 10° NW 20:30:26 42° NNW 20:30:26 42° NNW visible
27 Oct ? 22:08:54 10° NW 22:09:56 15° NW 22:09:56 15° NW visible
28 Oct ? 17:54:53 10° NW 17:59:42 26° N 18:03:50 12° ENE visible
28 Oct ? 19:37:54 10° NW 19:43:19 41° NNE 19:43:19 41° NNE visible
28 Oct ? 21:20:20 10° NW 21:22:49 26° NW 21:22:49 26° NW visible
29 Oct ? 18:49:24 10° NW 18:54:34 33° NNE 18:56:14 27° NE visible
29 Oct ? 20:31:53 10° NW 20:35:43 44° NW 20:35:43 44° NW visible
29 Oct ? 22:14:49 10° WNW 22:15:13 12° WNW 22:15:13 12° WNW visible
30 Oct ? 18:00:47 10° NW 18:05:43 28° NNE 18:09:09 16° ENE visible
30 Oct ? 19:43:28 10° NW 19:48:39 55° NNE 19:48:39 55° NNE visible
30 Oct ? 21:26:02 10° NW 21:28:09 22° WNW 21:28:09 22° WNW visible
31 Oct ? 18:55:02 10° NW 19:00:25 41° NNE 19:01:37 36° ENE visible
31 Oct ? 20:37:28 10° NW 20:41:07 40° WNW 20:41:07 40° WNW visible
01 Nov ? 18:06:32 10° NW 18:11:40 33° NNE 18:14:37 20° ENE visible
01 Nov ? 19:49:01 10° NW 19:54:07 72° NNW 19:54:07 72° NNW visible
01 Nov ? 21:31:57 10° WNW 21:33:37 17° WNW 21:33:37 17° WNW visible
02 Nov ? 17:17:55 10° NW 17:22:49 28° NNE 17:27:26 10° ENE visible
02 Nov ? 19:00:35 10° NW 19:06:09 57° NE 19:07:09 49° E visible
02 Nov ? 20:43:09 10° NW 20:46:39 32° W 20:46:39 32° W visible
03 Nov ? 18:12:09 10° NW 18:17:30 41° NNE 18:20:14 24° E visible
03 Nov ? 19:54:35 10° NW 19:59:45 63° WSW 19:59:45 63° WSW visible
03 Nov ? 21:38:30 10° WNW 21:39:15 12° W 21:39:15 12° W visible
04 Nov ? 17:23:38 10° NW 17:28:45 33° NNE 17:33:23 11° E visible
04 Nov ? 19:06:07 10° NW 19:11:43 83° NE 19:12:54 55° SE visible
04 Nov ? 20:49:04 10° WNW 20:52:24 23° W 20:52:24 23° W visible
